"Sample Date","Sample Time","Sample Value","Units","Flow Rate","Number Channels","Micron Size 0","Counts/Channel 0","Micron Size 1","Counts/Channel 1","Micron Size 2","Counts/Channel 2","Micron Size 3","Counts/Channel 3","Micron Size 4","Counts/Channel 4","Micron Size 5","Counts/Channel 5","Micron Size 6","Counts/Channel 6","Micron Size 7","Counts/Channel 7","Micron Size 8","Counts/Channel 8","Micron Size 9","Counts/Channel 9","Micron Size 10","Counts/Channel 10","Micron Size 11","Counts/Channel 11","Micron Size 12","Counts/Channel 12","Micron Size 13","Counts/Channel 13","Micron Size 14","Counts/Channel 14","Micron Size 15","Counts/Channel 15","Micron Size 16","Counts/Channel 16","Micron Size 17","Counts/Channel 17","Micron Size 18","Counts/Channel 18","Micron Size 19","Counts/Channel 19","Micron Size 20","Counts/Channel 20","Micron Size 21","Counts/Channel 21","Micron Size 22","Counts/Channel 22","Micron Size 23","Counts/Channel 23","Micron Size 24","Counts/Channel 24","Micron Size 25","Counts/Channel 25","Micron Size 26","Counts/Channel 26","Micron Size 27","Counts/Channel 27","Micron Size 28","Counts/Channel 28","Micron Size 29","Counts/Channel 29","Micron Size 30","Counts/Channel 30","Micron Size 31","Counts/Channel 31"
"05/10/08","10:00:00",21128.000,"cc",28361.449,6,0.100,18325.000,0.200,2651.000,0.300,137.000,0.500,14.000,1.000,1.000,5.000,0
"05/10/08","10:00:06",22806.000,"cc",28325.502,6,0.100,19906.000,0.200,2731.000,0.300,148.000,0.500,20.000,1.000,1.000,5.000,0
"05/10/08","10:00:12",20631.000,"cc",28340.131,6,0.100,17747.000,0.200,2693.000,0.300,168.000,0.500,22.000,1.000,1.000,5.000,0
"05/10/08","10:00:18",22707.000,"cc",28327.598,6,0.100,19750.000,0.200,2784.000,0.300,149.000,0.500,23.000,1.000,1.000,5.000,0
"05/10/08","10:00:24",20272.000,"cc",28343.463,6,0.100,17471.000,0.200,2629.000,0.300,144.000,0.500,27.000,1.000,1.000,5.000,0
"05/10/08","10:00:30",21022.000,"cc",28312.871,6,0.100,18065.000,0.200,2773.000,0.300,153.000,0.500,28.000,1.000,3.000,5.000,0
"05/10/08","10:00:36",14293.000,"cc",28313.162,6,0.100,12279.000,0.200,1854.000,0.300,138.000,0.500,21.000,1.000,1.000,5.000,0
"05/10/08","10:00:42",10959.000,"cc",28332.309,6,0.100,9290.000,0.200,1521.000,0.300,125.000,0.500,21.000,1.000,2.000,5.000,0
"05/10/08","10:00:48",8577.000,"cc",28280.336,6,0.100,7262.000,0.200,1208.000,0.300,86.000,0.500,21.000,1.000,0,5.000,0
"05/10/08","10:00:54",13352.000,"cc",28327.147,6,0.100,11455.000,0.200,1774.000,0.300,110.000,0.500,12.000,1.000,1.000,5.000,0
"05/10/08","10:01:00",17809.000,"cc",28280.301,6,0.100,15423.000,0.200,2263.000,0.300,109.000,0.500,14.000,1.000,0,5.000,0
"05/10/08","10:01:06",21106.000,"cc",28289.869,6,0.100,18287.000,0.200,2657.000,0.300,141.000,0.500,20.000,1.000,1.000,5.000,0
"05/10/08","10:01:12",29164.000,"cc",28328.037,6,0.100,25432.000,0.200,3568.000,0.300,145.000,0.500,17.000,1.000,2.000,5.000,0
"05/10/08","10:01:18",29755.000,"cc",28407.910,6,0.100,25841.000,0.200,3707.000,0.300,184.000,0.500,21.000,1.000,2.000,5.000,0
"05/10/08","10:01:24",23653.000,"cc",28313.281,6,0.100,20542.000,0.200,2920.000,0.300,165.000,0.500,24.000,1.000,2.000,5.000,0
"05/10/08","10:01:30",37825.000,"cc",28348.826,6,0.100,32985.000,0.200,4613.000,0.300,209.000,0.500,16.000,1.000,2.000,5.000,0
"05/10/08","10:01:36",28623.000,"cc",28321.090,6,0.100,24881.000,0.200,3569.000,0.300,153.000,0.500,19.000,1.000,1.000,5.000,0
"05/10/08","10:01:42",20418.000,"cc",28278.842,6,0.100,17622.000,0.200,2651.000,0.300,131.000,0.500,13.000,1.000,1.000,5.000,0
"05/10/08","10:01:48",31226.000,"cc",28319.008,6,0.100,27115.000,0.200,3897.000,0.300,196.000,0.500,16.000,1.000,2.000,5.000,0
"05/10/08","10:01:54",27893.000,"cc",28322.086,6,0.100,24173.000,0.200,3552.000,0.300,154.000,0.500,12.000,1.000,2.000,5.000,0
"05/10/08","10:02:00",18073.000,"cc",28286.160,6,0.100,15557.000,0.200,2351.000,0.300,145.000,0.500,19.000,1.000,1.000,5.000,0
"05/10/08","10:02:06",21164.000,"cc",28280.338,6,0.100,18283.000,0.200,2711.000,0.300,150.000,0.500,19.000,1.000,1.000,5.000,0
"05/10/08","10:02:12",20725.000,"cc",28348.326,6,0.100,17855.000,0.200,2693.000,0.300,160.000,0.500,17.000,1.000,0,5.000,0
"05/10/08","10:02:18",24380.000,"cc",28386.275,6,0.100,21113.000,0.200,3084.000,0.300,163.000,0.500,17.000,1.000,3.000,5.000,0
"05/10/08","10:02:24",19574.000,"cc",28275.201,6,0.100,16912.000,0.200,2495.000,0.300,143.000,0.500,23.000,1.000,1.000,5.000,0
"05/10/08","10:02:30",20787.000,"cc",28300.645,6,0.100,17949.000,0.200,2670.000,0.300,146.000,0.500,21.000,1.000,1.000,5.000,0
"05/10/08","10:02:36",33006.000,"cc",28329.350,6,0.100,28519.000,0.200,4237.000,0.300,226.000,0.500,22.000,1.000,2.000,5.000,0
"05/10/08","10:02:42",27519.000,"cc",28328.348,6,0.100,23793.000,0.200,3529.000,0.300,175.000,0.500,22.000,1.000,0,5.000,0
"05/10/08","10:02:48",15955.000,"cc",28323.494,6,0.100,13657.000,0.200,2145.000,0.300,129.000,0.500,21.000,1.000,3.000,5.000,0
"05/10/08","10:02:54",13476.000,"cc",28260.268,6,0.100,11553.000,0.200,1793.000,0.300,118.000,0.500,9.000,1.000,3.000,5.000,0
"05/10/08","10:03:00",13753.000,"cc",28286.981,6,0.100,11859.000,0.200,1767.000,0.300,111.000,0.500,15.000,1.000,1.000,5.000,0
"05/10/08","10:03:06",14611.000,"cc",28335.391,6,0.100,12581.000,0.200,1889.000,0.300,125.000,0.500,15.000,1.000,1.000,5.000,0
"05/10/08","10:03:12",12621.000,"cc",28373.481,6,0.100,10756.000,0.200,1710.000,0.300,133.000,0.500,21.000,1.000,1.000,5.000,0
"05/10/08","10:03:18",17888.000,"cc",28285.838,6,0.100,15490.000,0.200,2233.000,0.300,141.000,0.500,18.000,1.000,6.000,5.000,0
"05/10/08","10:03:24",28985.000,"cc",28261.162,6,0.100,25077.000,0.200,3678.000,0.300,199.000,0.500,29.000,1.000,2.000,5.000,0
"05/10/08","10:03:30",38183.000,"cc",28289.988,6,0.100,32959.000,0.200,4969.000,0.300,237.000,0.500,16.000,1.000,2.000,5.000,0
"05/10/08","10:03:36",32220.000,"cc",28270.004,6,0.100,27678.000,0.200,4263.000,0.300,256.000,0.500,21.000,1.000,2.000,5.000,0
"05/10/08","10:03:42",30752.000,"cc",28383.129,6,0.100,26474.000,0.200,4027.000,0.300,220.000,0.500,29.000,1.000,2.000,5.000,0
"05/10/08","10:03:48",27069.000,"cc",28342.516,6,0.100,23247.000,0.200,3604.000,0.300,198.000,0.500,20.000,1.000,0,5.000,0
"05/10/08","10:03:54",49647.000,"cc",28376.147,6,0.100,42904.000,0.200,6419.000,0.300,304.000,0.500,19.000,1.000,1.000,5.000,0
"05/10/08","10:04:00",49082.000,"cc",28339.773,6,0.100,42523.000,0.200,6257.000,0.300,280.000,0.500,22.000,1.000,0,5.000,0
"05/10/08","10:04:06",36387.000,"cc",28298.865,6,0.100,31363.000,0.200,4764.000,0.300,244.000,0.500,16.000,1.000,0,5.000,0
"05/10/08","10:04:12",27354.000,"cc",28255.850,6,0.100,23423.000,0.200,3723.000,0.300,182.000,0.500,24.000,1.000,2.000,5.000,0
"05/10/08","10:04:18",17274.000,"cc",28247.494,6,0.100,14690.000,0.200,2421.000,0.300,147.000,0.500,16.000,1.000,0,5.000,0
"05/10/08","10:04:24",12774.000,"cc",28314.283,6,0.100,10811.000,0.200,1827.000,0.300,118.000,0.500,17.000,1.000,1.000,5.000,0
"05/10/08","10:04:30",10873.000,"cc",28406.434,6,0.100,9148.000,0.200,1588.000,0.300,118.000,0.500,18.000,1.000,1.000,5.000,0
"05/10/08","10:04:36",10170.000,"cc",28360.805,6,0.100,8644.000,0.200,1411.000,0.300,102.000,0.500,13.000,1.000,0,5.000,0
"05/10/08","10:04:42",11369.000,"cc",28292.525,6,0.100,9574.000,0.200,1656.000,0.300,124.000,0.500,15.000,1.000,0,5.000,0
"05/10/08","10:04:48",12622.000,"cc",28381.410,6,0.100,10745.000,0.200,1743.000,0.300,113.000,0.500,20.000,1.000,1.000,5.000,0
"05/10/08","10:04:54",18546.000,"cc",28351.543,6,0.100,15819.000,0.200,2570.000,0.300,133.000,0.500,21.000,1.000,3.000,5.000,0
"05/10/08","10:05:00",11360.000,"cc",28295.934,6,0.100,9636.000,0.200,1589.000,0.300,113.000,0.500,22.000,1.000,0,5.000,0
"05/10/08","10:05:06",21927.000,"cc",28255.762,6,0.100,18753.000,0.200,2977.000,0.300,182.000,0.500,14.000,1.000,1.000,5.000,0
"05/10/08","10:05:12",29694.000,"cc",28270.834,6,0.100,25442.000,0.200,3974.000,0.300,251.000,0.500,25.000,1.000,2.000,5.000,0
"05/10/08","10:05:18",19897.000,"cc",28294.682,6,0.100,16993.000,0.200,2682.000,0.300,197.000,0.500,24.000,1.000,1.000,5.000,0
"05/10/08","10:05:24",24012.000,"cc",28314.662,6,0.100,20535.000,0.200,3287.000,0.300,177.000,0.500,11.000,1.000,2.000,5.000,0
"05/10/08","10:05:30",19320.000,"cc",28359.551,6,0.100,16462.000,0.200,2672.000,0.300,168.000,0.500,17.000,1.000,1.000,5.000,0
"05/10/08","10:05:36",31337.000,"cc",28369.379,6,0.100,26864.000,0.200,4221.000,0.300,236.000,0.500,15.000,1.000,1.000,5.000,0
"05/10/08","10:05:42",23282.000,"cc",28304.096,6,0.100,19921.000,0.200,3170.000,0.300,184.000,0.500,7.000,1.000,0,5.000,0
"05/10/08","10:05:48",13910.000,"cc",28368.940,6,0.100,11738.000,0.200,2009.000,0.300,147.000,0.500,15.000,1.000,1.000,5.000,0
"05/10/08","10:05:54",12311.000,"cc",28324.838,6,0.100,10459.000,0.200,1716.000,0.300,120.000,0.500,16.000,1.000,0,5.000,0
"05/10/08","10:06:00",15936.000,"cc",28320.727,6,0.100,13484.000,0.200,2265.000,0.300,159.000,0.500,27.000,1.000,1.000,5.000,0
"05/10/08","10:06:06",13785.000,"cc",28293.045,6,0.100,11656.000,0.200,2002.000,0.300,107.000,0.500,19.000,1.000,1.000,5.000,0
"05/10/08","10:06:12",16540.000,"cc",28311.563,6,0.100,13966.000,0.200,2384.000,0.300,165.000,0.500,21.000,1.000,4.000,5.000,0
"05/10/08","10:06:18",11244.000,"cc",28359.395,6,0.100,9407.000,0.200,1679.000,0.300,140.000,0.500,13.000,1.000,5.000,5.000,0
"05/10/08","10:06:24",10326.000,"cc",28311.463,6,0.100,8583.000,0.200,1586.000,0.300,143.000,0.500,13.000,1.000,1.000,5.000,0
"05/10/08","10:06:30",9085.000,"cc",28298.740,6,0.100,7609.000,0.200,1351.000,0.300,105.000,0.500,18.000,1.000,2.000,5.000,0
"05/10/08","10:06:36",10496.000,"cc",28305.756,6,0.100,8818.000,0.200,1535.000,0.300,125.000,0.500,16.000,1.000,2.000,5.000,0
"05/10/08","10:06:42",12804.000,"cc",28335.932,6,0.100,10822.000,0.200,1845.000,0.300,124.000,0.500,12.000,1.000,1.000,5.000,0
"05/10/08","10:06:48",16849.000,"cc",28339.584,6,0.100,14215.000,0.200,2468.000,0.300,150.000,0.500,15.000,1.000,1.000,5.000,0
"05/10/08","10:06:54",16245.000,"cc",28292.959,6,0.100,13799.000,0.200,2259.000,0.300,170.000,0.500,17.000,1.000,0,5.000,0
"05/10/08","10:07:00",20683.000,"cc",28288.553,6,0.100,17478.000,0.200,2980.000,0.300,205.000,0.500,18.000,1.000,2.000,5.000,0
"05/10/08","10:07:06",19891.000,"cc",28294.492,6,0.100,16857.000,0.200,2827.000,0.300,191.000,0.500,16.000,1.000,0,5.000,0
"05/10/08","10:07:12",23271.000,"cc",28368.154,6,0.100,19735.000,0.200,3289.000,0.300,228.000,0.500,17.000,1.000,2.000,5.000,0
"05/10/08","10:07:18",31392.000,"cc",28301.904,6,0.100,26600.000,0.200,4484.000,0.300,289.000,0.500,16.000,1.000,3.000,5.000,0
"05/10/08","10:07:24",32504.000,"cc",28322.975,6,0.100,27755.000,0.200,4416.000,0.300,311.000,0.500,19.000,1.000,3.000,5.000,0
"05/10/08","10:07:30",35366.000,"cc",28286.748,6,0.100,30129.000,0.200,4913.000,0.300,305.000,0.500,19.000,1.000,0,5.000,0
"05/10/08","10:07:36",44376.000,"cc",28415.395,6,0.100,37872.000,0.200,6100.000,0.300,373.000,0.500,27.000,1.000,4.000,5.000,0
"05/10/08","10:07:42",39559.000,"cc",28217.164,6,0.100,33743.000,0.200,5442.000,0.300,348.000,0.500,26.000,1.000,0,5.000,0
"05/10/08","10:07:48",33761.000,"cc",28318.395,6,0.100,28819.000,0.200,4637.000,0.300,276.000,0.500,27.000,1.000,2.000,5.000,0
"05/10/08","10:07:54",27987.000,"cc",28326.371,6,0.100,23845.000,0.200,3885.000,0.300,232.000,0.500,23.000,1.000,2.000,5.000,0
"05/10/08","10:08:00",25252.000,"cc",28318.688,6,0.100,21508.000,0.200,3504.000,0.300,214.000,0.500,23.000,1.000,3.000,5.000,0
"05/10/08","10:08:06",25050.000,"cc",28383.199,6,0.100,21262.000,0.200,3542.000,0.300,229.000,0.500,17.000,1.000,0,5.000,0
"05/10/08","10:08:12",23849.000,"cc",28286.996,6,0.100,20305.000,0.200,3311.000,0.300,211.000,0.500,22.000,1.000,0,5.000,0
"05/10/08","10:08:18",20985.000,"cc",28332.627,6,0.100,17949.000,0.200,2859.000,0.300,165.000,0.500,11.000,1.000,1.000,5.000,0
"05/10/08","10:08:24",27672.000,"cc",28294.994,6,0.100,23625.000,0.200,3813.000,0.300,218.000,0.500,14.000,1.000,2.000,5.000,0
"05/10/08","10:08:30",34177.000,"cc",28322.426,6,0.100,29377.000,0.200,4523.000,0.300,257.000,0.500,19.000,1.000,1.000,5.000,0
"05/10/08","10:08:36",31690.000,"cc",28276.178,6,0.100,27243.000,0.200,4224.000,0.300,211.000,0.500,10.000,1.000,2.000,5.000,0
"05/10/08","10:08:42",28043.000,"cc",28339.031,6,0.100,24017.000,0.200,3784.000,0.300,223.000,0.500,15.000,1.000,4.000,5.000,0
"05/10/08","10:08:48",21898.000,"cc",28346.934,6,0.100,18756.000,0.200,2962.000,0.300,158.000,0.500,21.000,1.000,1.000,5.000,0
"05/10/08","10:08:54",21260.000,"cc",28315.066,6,0.100,18181.000,0.200,2887.000,0.300,168.000,0.500,20.000,1.000,4.000,5.000,0
"05/10/08","10:09:00",22226.000,"cc",28275.898,6,0.100,19096.000,0.200,2960.000,0.300,156.000,0.500,12.000,1.000,2.000,5.000,0
"05/10/08","10:09:06",31266.000,"cc",28356.455,6,0.100,26938.000,0.200,4113.000,0.300,199.000,0.500,14.000,1.000,2.000,5.000,0
"05/10/08","10:09:12",20176.000,"cc",28302.660,6,0.100,17389.000,0.200,2628.000,0.300,143.000,0.500,15.000,1.000,1.000,5.000,0
"05/10/08","10:09:18",16426.000,"cc",28316.871,6,0.100,14193.000,0.200,2092.000,0.300,124.000,0.500,17.000,1.000,0,5.000,0
"05/10/08","10:09:24",15173.000,"cc",28281.947,6,0.100,13082.000,0.200,1944.000,0.300,132.000,0.500,15.000,1.000,0,5.000,0
"05/10/08","10:09:30",13913.000,"cc",28283.865,6,0.100,11971.000,0.200,1824.000,0.300,101.000,0.500,17.000,1.000,0,5.000,0
"05/10/08","10:09:36",10835.000,"cc",28346.635,6,0.100,9213.000,0.200,1518.000,0.300,86.000,0.500,17.000,1.000,1.000,5.000,0
"05/10/08","10:09:42",14387.000,"cc",28335.174,6,0.100,12256.000,0.200,1989.000,0.300,121.000,0.500,17.000,1.000,4.000,5.000,0
"05/10/08","10:09:48",17719.000,"cc",28338.777,6,0.100,15199.000,0.200,2382.000,0.300,119.000,0.500,18.000,1.000,1.000,5.000,0
"05/10/08","10:09:54",19902.000,"cc",28326.510,6,0.100,17157.000,0.200,2571.000,0.300,147.000,0.500,26.000,1.000,1.000,5.000,0
"05/10/08","10:10:00",23388.000,"cc",28274.637,6,0.100,20171.000,0.200,3034.000,0.300,164.000,0.500,18.000,1.000,1.000,5.000,0
"05/10/08","10:10:06",24268.000,"cc",28307.022,6,0.100,21025.000,0.200,3089.000,0.300,136.000,0.500,17.000,1.000,1.000,5.000,0
"05/10/08","10:10:12",20013.000,"cc",28320.631,6,0.100,17178.000,0.200,2681.000,0.300,133.000,0.500,20.000,1.000,1.000,5.000,0
"05/10/08","10:10:18",20061.000,"cc",28304.736,6,0.100,17305.000,0.200,2606.000,0.300,134.000,0.500,14.000,1.000,2.000,5.000,0
"05/10/08","10:10:24",19368.000,"cc",28359.215,6,0.100,16686.000,0.200,2521.000,0.300,143.000,0.500,16.000,1.000,2.000,5.000,0
"05/10/08","10:10:30",22298.000,"cc",28253.746,6,0.100,19138.000,0.200,2979.000,0.300,154.000,0.500,27.000,1.000,0,5.000,0
"05/10/08","10:10:36",17141.000,"cc",28279.857,6,0.100,14714.000,0.200,2277.000,0.300,133.000,0.500,16.000,1.000,1.000,5.000,0
"05/10/08","10:10:42",12676.000,"cc",28342.217,6,0.100,10936.000,0.200,1609.000,0.300,117.000,0.500,14.000,1.000,0,5.000,0
"05/10/08","10:10:48",13965.000,"cc",28364.223,6,0.100,12032.000,0.200,1809.000,0.300,106.000,0.500,15.000,1.000,3.000,5.000,0
"05/10/08","10:10:54",22153.000,"cc",28330.143,6,0.100,19120.000,0.200,2854.000,0.300,154.000,0.500,22.000,1.000,3.000,5.000,0
"05/10/08","10:11:00",23290.000,"cc",28263.949,6,0.100,20118.000,0.200,3009.000,0.300,139.000,0.500,24.000,1.000,0,5.000,0
"05/10/08","10:11:06",26809.000,"cc",28366.680,6,0.100,23162.000,0.200,3452.000,0.300,162.000,0.500,33.000,1.000,0,5.000,0
"05/10/08","10:11:12",26275.000,"cc",28310.943,6,0.100,22858.000,0.200,3233.000,0.300,161.000,0.500,21.000,1.000,2.000,5.000,0
"05/10/08","10:11:18",36352.000,"cc",28337.813,6,0.100,31642.000,0.200,4493.000,0.300,192.000,0.500,25.000,1.000,0,5.000,0
"05/10/08","10:11:24",22955.000,"cc",28274.154,6,0.100,19822.000,0.200,2966.000,0.300,146.000,0.500,21.000,1.000,0,5.000,0
"05/10/08","10:11:30",19430.000,"cc",28308.893,6,0.100,16822.000,0.200,2446.000,0.300,146.000,0.500,16.000,1.000,0,5.000,0
"05/10/08","10:11:36",16730.000,"cc",28330.719,6,0.100,14386.000,0.200,2184.000,0.300,142.000,0.500,17.000,1.000,1.000,5.000,0
"05/10/08","10:11:42",15197.000,"cc",28316.186,6,0.100,13047.000,0.200,2005.000,0.300,125.000,0.500,20.000,1.000,0,5.000,0
"05/10/08","10:11:48",19790.000,"cc",28354.857,6,0.100,17127.000,0.200,2512.000,0.300,135.000,0.500,15.000,1.000,1.000,5.000,0
"05/10/08","10:11:54",18962.000,"cc",28306.693,6,0.100,16311.000,0.200,2489.000,0.300,138.000,0.500,22.000,1.000,2.000,5.000,0
"05/10/08","10:12:00",15552.000,"cc",28321.912,6,0.100,13382.000,0.200,2032.000,0.300,118.000,0.500,19.000,1.000,1.000,5.000,0
"05/10/08","10:12:06",14123.000,"cc",28291.033,6,0.100,12050.000,0.200,1923.000,0.300,134.000,0.500,16.000,1.000,0,5.000,0
"05/10/08","10:12:12",14722.000,"cc",28341.533,6,0.100,12577.000,0.200,1981.000,0.300,133.000,0.500,29.000,1.000,2.000,5.000,0
"05/10/08","10:12:18",19232.000,"cc",28305.037,6,0.100,16546.000,0.200,2517.000,0.300,143.000,0.500,25.000,1.000,1.000,5.000,0
"05/10/08","10:12:24",20264.000,"cc",28246.902,6,0.100,17442.000,0.200,2633.000,0.300,155.000,0.500,31.000,1.000,3.000,5.000,0
"05/10/08","10:12:30",19402.000,"cc",28335.162,6,0.100,16604.000,0.200,2608.000,0.300,170.000,0.500,18.000,1.000,2.000,5.000,0
"05/10/08","10:12:36",37633.000,"cc",28357.984,6,0.100,32521.000,0.200,4810.000,0.300,274.000,0.500,28.000,1.000,0,5.000,0
"05/10/08","10:12:42",45105.000,"cc",28362.850,6,0.100,39213.000,0.200,5640.000,0.300,235.000,0.500,14.000,1.000,3.000,5.000,0
"05/10/08","10:12:48",22204.000,"cc",28315.885,6,0.100,19105.000,0.200,2928.000,0.300,154.000,0.500,17.000,1.000,0,5.000,0
"05/10/08","10:12:54",14396.000,"cc",28264.004,6,0.100,12373.000,0.200,1904.000,0.300,102.000,0.500,17.000,1.000,0,5.000,0
"05/10/08","10:13:00",9660.000,"cc",28348.891,6,0.100,8233.000,0.200,1314.000,0.300,101.000,0.500,12.000,1.000,0,5.000,0
"05/10/08","10:13:06",12081.000,"cc",28285.807,6,0.100,10389.000,0.200,1564.000,0.300,110.000,0.500,17.000,1.000,1.000,5.000,0
"05/10/08","10:13:12",10447.000,"cc",28361.065,6,0.100,8886.000,0.200,1448.000,0.300,98.000,0.500,14.000,1.000,1.000,5.000,0
"05/10/08","10:13:18",8796.000,"cc",28322.016,6,0.100,7424.000,0.200,1274.000,0.300,75.000,0.500,21.000,1.000,2.000,5.000,0
"05/10/08","10:13:24",11706.000,"cc",28307.152,6,0.100,10059.000,0.200,1543.000,0.300,87.000,0.500,14.000,1.000,3.000,5.000,0
"05/10/08","10:13:30",14403.000,"cc",28281.383,6,0.100,12473.000,0.200,1817.000,0.300,101.000,0.500,11.000,1.000,1.000,5.000,0
"05/10/08","10:13:36",19200.000,"cc",28303.951,6,0.100,16615.000,0.200,2455.000,0.300,114.000,0.500,14.000,1.000,2.000,5.000,0
"05/10/08","10:13:42",21662.000,"cc",28324.863,6,0.100,18758.000,0.200,2748.000,0.300,133.000,0.500,21.000,1.000,2.000,5.000,0
"05/10/08","10:13:48",20066.000,"cc",28350.332,6,0.100,17312.000,0.200,2596.000,0.300,141.000,0.500,16.000,1.000,1.000,5.000,0
"05/10/08","10:13:54",33723.000,"cc",28327.799,6,0.100,29266.000,0.200,4238.000,0.300,183.000,0.500,35.000,1.000,1.000,5.000,0
"05/10/08","10:14:00",27078.000,"cc",28306.910,6,0.100,23472.000,0.200,3414.000,0.300,164.000,0.500,25.000,1.000,3.000,5.000,0
"05/10/08","10:14:06",27169.000,"cc",28268.236,6,0.100,23781.000,0.200,3231.000,0.300,137.000,0.500,20.000,1.000,0,5.000,0
"05/10/08","10:14:12",39868.000,"cc",28259.805,6,0.100,34796.000,0.200,4900.000,0.300,156.000,0.500,14.000,1.000,2.000,5.000,0
"05/10/08","10:14:18",33123.000,"cc",28309.336,6,0.100,28957.000,0.200,3968.000,0.300,186.000,0.500,12.000,1.000,0,5.000,0
"05/10/08","10:14:24",28523.000,"cc",28399.180,6,0.100,24866.000,0.200,3480.000,0.300,154.000,0.500,20.000,1.000,3.000,5.000,0
"05/10/08","10:14:30",24837.000,"cc",28300.436,6,0.100,21609.000,0.200,3067.000,0.300,140.000,0.500,20.000,1.000,1.000,5.000,0
"05/10/08","10:14:36",24374.000,"cc",28314.940,6,0.100,21220.000,0.200,2984.000,0.300,143.000,0.500,27.000,1.000,0,5.000,0
"05/10/08","10:14:42",25965.000,"cc",28376.381,6,0.100,22518.000,0.200,3235.000,0.300,182.000,0.500,27.000,1.000,3.000,5.000,0
"05/10/08","10:14:48",38293.000,"cc",28322.633,6,0.100,33398.000,0.200,4664.000,0.300,200.000,0.500,28.000,1.000,3.000,5.000,0
"05/10/08","10:14:54",51385.000,"cc",28297.801,6,0.100,44973.000,0.200,6152.000,0.300,243.000,0.500,17.000,1.000,0,5.000,0
"05/10/08","10:15:00",26117.000,"cc",28285.707,6,0.100,22712.000,0.200,3239.000,0.300,144.000,0.500,20.000,1.000,2.000,5.000,0
"05/10/08","10:15:06",29799.000,"cc",28265.387,6,0.100,25886.000,0.200,3698.000,0.300,189.000,0.500,25.000,1.000,1.000,5.000,0
"05/10/08","10:15:12",37674.000,"cc",28306.705,6,0.100,32850.000,0.200,4596.000,0.300,196.000,0.500,29.000,1.000,3.000,5.000,0
"05/10/08","10:15:18",46550.000,"cc",28308.852,6,0.100,40534.000,0.200,5727.000,0.300,260.000,0.500,28.000,1.000,1.000,5.000,0
"05/10/08","10:15:24",36751.000,"cc",28290.596,6,0.100,32102.000,0.200,4426.000,0.300,203.000,0.500,18.000,1.000,2.000,5.000,0
"05/10/08","10:15:30",22899.000,"cc",28330.645,6,0.100,20011.000,0.200,2748.000,0.300,127.000,0.500,13.000,1.000,0,5.000,0
"05/10/08","10:15:36",18417.000,"cc",28370.760,6,0.100,16001.000,0.200,2281.000,0.300,116.000,0.500,19.000,1.000,0,5.000,0
"05/10/08","10:15:42",19771.000,"cc",28366.113,6,0.100,17201.000,0.200,2441.000,0.300,112.000,0.500,17.000,1.000,0,5.000,0
"05/10/08","10:15:48",14272.000,"cc",28300.938,6,0.100,12398.000,0.200,1751.000,0.300,111.000,0.500,12.000,1.000,0,5.000,0
"05/10/08","10:15:54",18675.000,"cc",28361.918,6,0.100,16218.000,0.200,2313.000,0.300,125.000,0.500,19.000,1.000,0,5.000,0
"05/10/08","10:16:00",21358.000,"cc",28270.680,6,0.100,18550.000,0.200,2672.000,0.300,117.000,0.500,19.000,1.000,0,5.000,0
"05/10/08","10:16:06",22315.000,"cc",28268.359,6,0.100,19383.000,0.200,2752.000,0.300,154.000,0.500,24.000,1.000,2.000,5.000,0
"05/10/08","10:16:12",21276.000,"cc",28310.244,6,0.100,18383.000,0.200,2719.000,0.300,152.000,0.500,18.000,1.000,4.000,5.000,0
"05/10/08","10:16:18",22447.000,"cc",28328.725,6,0.100,19513.000,0.200,2759.000,0.300,157.000,0.500,16.000,1.000,2.000,5.000,0
"05/10/08","10:16:24",22185.000,"cc",28317.926,6,0.100,19230.000,0.200,2789.000,0.300,144.000,0.500,22.000,1.000,0,5.000,0
"05/10/08","10:16:30",26986.000,"cc",28276.990,6,0.100,23423.000,0.200,3385.000,0.300,163.000,0.500,14.000,1.000,1.000,5.000,0
"05/10/08","10:16:36",26977.000,"cc",28274.703,6,0.100,23499.000,0.200,3316.000,0.300,144.000,0.500,16.000,1.000,2.000,5.000,0
"05/10/08","10:16:42",29394.000,"cc",28370.172,6,0.100,25729.000,0.200,3510.000,0.300,139.000,0.500,14.000,1.000,2.000,5.000,0
"05/10/08","10:16:48",46373.000,"cc",28316.119,6,0.100,40524.000,0.200,5629.000,0.300,205.000,0.500,14.000,1.000,1.000,5.000,0
"05/10/08","10:16:54",38227.000,"cc",28304.848,6,0.100,33433.000,0.200,4571.000,0.300,197.000,0.500,24.000,1.000,2.000,5.000,0
"05/10/08","10:17:00",40061.000,"cc",28341.414,6,0.100,35023.000,0.200,4798.000,0.300,212.000,0.500,25.000,1.000,3.000,5.000,0
"05/10/08","10:17:06",44372.000,"cc",28273.539,6,0.100,38779.000,0.200,5350.000,0.300,217.000,0.500,23.000,1.000,3.000,5.000,0
"05/10/08","10:17:12",45274.000,"cc",28334.096,6,0.100,39613.000,0.200,5456.000,0.300,178.000,0.500,23.000,1.000,4.000,5.000,0
"05/10/08","10:17:18",34437.000,"cc",28385.445,6,0.100,30150.000,0.200,4084.000,0.300,181.000,0.500,19.000,1.000,3.000,5.000,0
"05/10/08","10:17:24",33422.000,"cc",28315.231,6,0.100,29238.000,0.200,3979.000,0.300,193.000,0.500,12.000,1.000,0,5.000,0
"05/10/08","10:17:30",25840.000,"cc",28296.742,6,0.100,22309.000,0.200,3295.000,0.300,205.000,0.500,30.000,1.000,1.000,5.000,0
"05/10/08","10:17:36",27152.000,"cc",28346.082,6,0.100,23550.000,0.200,3331.000,0.300,224.000,0.500,45.000,1.000,2.000,5.000,0
"05/10/08","10:17:42",24667.000,"cc",28349.770,6,0.100,21480.000,0.200,2995.000,0.300,167.000,0.500,25.000,1.000,0,5.000,0
"05/10/08","10:17:48",25465.000,"cc",28318.570,6,0.100,22112.000,0.200,3167.000,0.300,167.000,0.500,19.000,1.000,0,5.000,0